Flag for U.S.A. Weather past 2 weeks in Flint, Michigan, U.S.A.

Now
59 °F

Scattered clouds.


Feels Like: 56 °F
Forecast: 31 / 57 °F
Wind: 15 mph from Northwest

Location: Bishop International Airport


UV Index: 5 (Moderate)

Visibility: 10 mi


Pressure: 30.24 "Hg

Humidity: 44%

Dew point: 37 °F

Location of FlintLocation

Historic Weather in Flint

°F

Flint temperature yesterday

Maximum temperature yesterday: 66 °F (at 5:53 PM)
Minimum temperature yesterday: 31 °F (at 4:53 AM)
Average temperature yesterday: 49 °F

Past Weeks' High & Low Weather Summary

 TemperatureHumidityPressure
High73 °F (Apr 13, 2:53 PM)93% (Apr 4, 8:00 AM)30.47 "Hg (Apr 4, 8:00 AM)
Low20 °F (Apr 16, 6:53 AM)19% (Apr 11, 11:53 AM)29.37 "Hg (Apr 14, 6:53 AM)
Average46 °F58%29.94 "Hg
* Reported Apr 3 6:53 PM — Apr 18 6:53 PM, Flint, Weather by CustomWeather, © 2014

Note: Actual official high and low records may vary slightly from our data, if they occured in-between our weather recording intervals... More about our weather records

Advertising

Historic Weather Conditions — Data for Previous 24 hours

 ConditionsComfort  
Time TempWeatherWind HumidityBarometerVisibility
6:53 PM
Apr 18
59 °FScattered clouds.15 mph44%30.24 "Hg10 mi
5:53 PM61 °FPassing clouds.13 mph39%30.24 "Hg10 mi
4:53 PM60 °FPartly sunny.6 mph41%30.25 "Hg10 mi
3:53 PM60 °FPartly sunny.9 mph41%30.27 "Hg10 mi
2:53 PM60 °FPartly sunny.6 mph41%30.28 "Hg10 mi
1:53 PM59 °FBroken clouds.9 mph46%30.29 "Hg10 mi
12:53 PM55 °FPartly sunny.No wind57%30.30 "Hg9 mi
11:58 AM54 °FScattered clouds.5 mph64%30.29 "Hg8 mi
10:53 AM51 °FPassing clouds.7 mph69%30.29 "Hg8 mi
9:53 AM50 °FScattered clouds.9 mph68%30.29 "Hg8 mi
9:02 AM48 °FFog.No wind89%30.29 "Hg2 mi
9:00 AM48 °FFog.No wind89%30.29 "Hg2 mi
8:00 AM47 °FLight rain. Fog.3 mph90%30.27 "Hg2 mi
6:53 AM47 °FLight rain. Fog.No wind86%30.27 "Hg3 mi
5:53 AM47 °FLight rain. Fog.No wind86%30.25 "Hg4 mi
4:53 AM48 °FLight rain. Overcast.No wind80%30.26 "Hg5 mi
3:53 AM48 °FLight rain. Overcast.7 mph77%30.26 "Hg8 mi
2:53 AM50 °FMostly cloudy.5 mph63%30.25 "Hg10 mi
1:53 AM51 °FPassing clouds.3 mph54%30.24 "Hg10 mi
12:53 AM49 °FClear.No wind59%30.24 "Hg10 mi
11:53 PM
Apr 17
53 °FClear.No wind51%30.24 "Hg10 mi
10:53 PM56 °FClear.5 mph42%30.24 "Hg10 mi
9:53 PM57 °FPassing clouds.6 mph37%30.23 "Hg10 mi
8:53 PM60 °FPartly sunny.7 mph32%30.22 "Hg10 mi
Weather by CustomWeather, © 2014

See weather overview